Location: Köln
(50.9375°N, 6.9603°E)
Time: 10:58:07
(UTC+02:00)

Starlink (trailer) - Visible Passes

Search period start: 22 October 2019 00:00
Search period end: 31 October 2019 23:00
Orbit: 548 x 551 km, 53.0° (Epoch: 21 October)

Date Brightness Start Highest point End Pass type
(mag) Time Alt. Az. Time Alt. Az. Time Alt. Az.
22 Oct 3.8 18:53:14 10° W 18:57:22 68° N 19:01:31 10° ENE visible
22 Oct 3.5 20:33:03 10° WNW 20:37:12 77° NNE 20:37:35 69° ENE visible
22 Oct 6.7 22:12:45 10° WNW 22:13:14 13° W 22:13:14 13° W visible
23 Oct 3.5 20:27:38 10° WNW 20:31:49 84° NNE 20:32:20 66° E visible
23 Oct 6.6 22:07:24 10° W 22:07:59 13° W 22:07:59 13° W visible
24 Oct 3.5 20:22:13 10° WNW 20:26:23 86° SSW 20:27:08 59° ESE visible
24 Oct 6.6 22:02:06 10° W 22:02:47 14° W 22:02:47 14° W visible
25 Oct 3.6 20:16:48 10° WNW 20:20:56 75° SSW 20:21:57 49° SE visible
25 Oct 6.6 21:56:51 10° W 21:57:37 13° W 21:57:37 13° W visible
26 Oct 3.9 20:11:23 10° WNW 20:15:29 63° SSW 20:16:51 39° SE visible
26 Oct 6.5 21:51:44 10° W 21:52:30 13° WSW 21:52:30 13° WSW visible
27 Oct 4.2 19:05:58 10° WNW 19:10:00 52° SSW 19:11:49 29° SSE visible
27 Oct 6.6 20:46:49 10° WSW 20:47:29 12° WSW 20:47:29 12° WSW visible
28 Oct 4.6 19:00:33 10° WNW 19:04:29 43° SSW 19:06:53 21° SSE visible
29 Oct 5.0 18:55:10 10° WNW 18:58:58 35° SW 19:02:04 14° SSE visible
30 Oct 5.4 18:49:50 10° W 18:53:24 28° SW 18:56:57 10° SSE visible
31 Oct 5.9 18:44:33 10° W 18:47:49 23° SW 18:51:04 10° S visible
